Regional Weather Roundup
Issued by NWS

Home | Current Version | Previous Version | Text Only | Print | Product List | Glossary On
Versions: 1 2 3 4 5 6 7 8 9 10 11 12 13 14 15 16 17 18 19 20 21 22 23 24 25 26 27 28 29 30 31 32 33 34 35 36 37 38 39 40 41 42 43 44 45 46 47 48 49 50
000
ASUS44 KJAN 312310
RWRMS

MISSISSIPPI HOURLY WEATHER ROUNDUP
NATIONAL WEATHER SERVICE JACKSON MS
600 PM CDT TUE MAY 31 2016

NOTE: "FAIR: INDICATES FEW OR NO CLOUDS BELOW 12,000 FEET WITH NO
SIGNIFICANT WEATHER AND/OR OBSTRUCTIONS TO VISIBILITY.

MSZ001>002-007>008-010>013-018>021-025>028-034>036-010000-
NORTHWEST MISSISSIPPI

CITY           SKY/WX    TMP DP  RH WIND       PRES   REMARKS
BATESVILLE     FAIR      84  66  53 CALM      29.87S
CLARKSDALE     MOSUNNY   86  70  58 CALM      29.86S HX  90
CLEVELAND      FAIR      86  72  63 N5        29.85R HX  92
GREENWOOD      LGT RAIN  80  65  59 NW5       29.85R
GREENVILLE     SUNNY     87  67  51 CALM      29.85R HX  90
OLIVE BRANCH   PTSUNNY   81  70  69 SW6       29.88F
OXFORD         FAIR      84  66  54 SE5       29.89S
TUNICA         PTCLDY    82  66  57 CALM      29.87S
WINONA         FAIR      80  68  66 E5        29.86S
$$

MSZ003>006-009-014>017-022>024-029>033-037>039-010000-
NORTHEAST MISSISSIPPI

CITY           SKY/WX    TMP DP  RH WIND       PRES   REMARKS
COLUMBUS AFB   CLOUDY    82  67  59 SE10      29.88R
CORINTH        FAIR      84  64  51 SW3       29.87F
GOLDN TRIANGLE MOSUNNY   79  66  65 E9        29.89S
STARKVILLE     FAIR      77  66  69 CALM      29.88R
TUPELO         SUNNY     86  64  47 SE6       29.87F
$$

MSZ040-058-010000-
CENTRAL MISSISSIPPI

CITY           SKY/WX    TMP DP  RH WIND       PRES   REMARKS
JACKSON INTL   CLOUDY    87  67  51 SE7       29.84S THUNDER HX  90
JACKSON HAWKNS MOSUNNY   87  66  49 S6        29.84F
MADISON        FAIR      72  72 100 CALM      29.84F
MERIDIAN KEY   CLOUDY    79  67  66 NW8       29.88R
MERIDIAN NAS   PTSUNNY   77  67  71 CALM      29.88S
VICKSBURG TVR  SUNNY     88  67  49 VRB6      29.84S HX  91
VICKSBURG VKS  CLEAR     90  68  48 W7        29.84S HX  93
$$

MSZ059>079-010000-
SOUTH MISSISSIPPI

CITY           SKY/WX    TMP DP  RH WIND       PRES   REMARKS
BROOKHAVEN     FAIR     N/A N/A N/A S7        29.85F
COLUMBIA       FAIR      86  68  54 S9        29.88F
HATTIESBURG    SUNNY     88  67  49 S12       29.85F HX  91
MCCOMB         MOSUNNY   86  67  52 S13       29.85F
NATCHEZ        SUNNY     88  68  51 SW6       29.86R HX  91
PINE BELT      SUNNY     90  64  43 SW5       29.87S HX  91
$$

MSZ080>082-010000-
COASTAL MISSISSIPPI

CITY           SKY/WX    TMP DP  RH WIND       PRES   REMARKS
BAY ST LOUIS   MOSUNNY   88  63  42 S10       29.87F
BILOXI         SUNNY     85  71  62 S10       29.87F HX  90
PASCAGOULA     SUNNY     85  71  63 SW7       29.88F HX  90
GULFPORT       SUNNY     84  69  60 S9        29.87F
$$




USA.gov is the U.S. government's official web portal to all federal, state and local government web resources and services.